• In Latvia
  • List of Countries
  • For 7 days
  • Water Temperature
  • Satellite Maps
  • Weather Map
  • Weather Widgets
  • user-avatar
    Login

    Hourly Weather Wlora

    Today, 24 January, Wednesday

    Time Temperature Precipitation Wind Pressure Humidity
    00:00 +5°C° 0 mm 5 mps 767 mmHg 65%
    01:00 +5°C° 0 mm 5 mps 768 mmHg 66%
    02:00 +5°C° 0 mm 5 mps 768 mmHg 66%
    03:00 +3°C° 0 mm 5 mps 768 mmHg 65%
    04:00 +3°C° 0 mm 5 mps 769 mmHg 64%
    05:00 +3°C° 0 mm 5 mps 769 mmHg 63%
    06:00 +3°C° 0 mm 5 mps 769 mmHg 62%
    07:00 +3°C° 0 mm 5 mps 770 mmHg 61%
    08:00 +5°C° 0 mm 4 mps 770 mmHg 56%
    09:00 +7°C° 0 mm 4 mps 771 mmHg 51%
    10:00 +10°C° 0 mm 4 mps 771 mmHg 46%
    11:00 +10°C° 0 mm 4 mps 771 mmHg 43%
    12:00 +11°C° 0 mm 3 mps 771 mmHg 40%
    13:00 +12°C° 0 mm 3 mps 771 mmHg 37%
    14:00 +12°C° 0 mm 3 mps 771 mmHg 42%
    15:00 +11°C° 0 mm 3 mps 771 mmHg 46%
    16:00 +11°C° 0 mm 3 mps 771 mmHg 50%
    17:00 +10°C° 0 mm 3 mps 771 mmHg 51%
    18:00 +8°C° 0 mm 3 mps 772 mmHg 53%
    19:00 +7°C° 0 mm 3 mps 772 mmHg 54%
    20:00 +7°C° 0 mm 3 mps 772 mmHg 55%
    21:00 +5°C° 0 mm 3 mps 772 mmHg 56%
    22:00 +5°C° 0 mm 3 mps 772 mmHg 57%
    23:00 +6°C° 0 mm 2 mps 772 mmHg 56%

    Tomorrow, 25 January, Thursday

    Time Temperature Precipitation Wind Pressure Humidity
    00:00 +5°C° 0 mm 2 mps 772 mmHg 56%
    01:00 +5°C° 0 mm 2 mps 772 mmHg 55%
    02:00 +5°C° 0 mm 2 mps 772 mmHg 54%
    03:00 +5°C° 0 mm 2 mps 772 mmHg 53%
    04:00 +5°C° 0 mm 2 mps 772 mmHg 52%
    05:00 +5°C° 0 mm 2 mps 772 mmHg 51%
    06:00 +5°C° 0 mm 2 mps 772 mmHg 49%
    07:00 +5°C° 0 mm 2 mps 772 mmHg 48%
    08:00 +7°C° 0 mm 2 mps 772 mmHg 46%
    09:00 +9°C° 0 mm 1 mps 772 mmHg 43%
    10:00 +11°C° 0 mm 1 mps 772 mmHg 41%
    11:00 +12°C° 0 mm 1 mps 771 mmHg 42%
    12:00 +12°C° 0 mm 1 mps 771 mmHg 43%
    13:00 +13°C° 0 mm 1 mps 770 mmHg 44%
    14:00 +13°C° 0 mm 1 mps 770 mmHg 49%
    15:00 +12°C° 0 mm 1 mps 770 mmHg 55%
    16:00 +12°C° 0 mm 1 mps 769 mmHg 61%
    17:00 +11°C° 0 mm 1 mps 769 mmHg 64%
    18:00 +10°C° 0 mm 1 mps 769 mmHg 68%
    19:00 +8°C° 0 mm 1 mps 769 mmHg 72%
    20:00 +8°C° 0 mm 1 mps 769 mmHg 72%
    21:00 +8°C° 0 mm 1 mps 769 mmHg 72%
    22:00 +8°C° 0 mm 1 mps 769 mmHg 72%
    23:00 +8°C° 0 mm 1 mps 769 mmHg 72%

    Day after tomorrow, 26 January, Friday

    Time Temperature Precipitation Wind Pressure Humidity
    00:00 +7°C° 0 mm 2 mps 769 mmHg 71%
    01:00 +6°C° 0 mm 2 mps 769 mmHg 71%
    02:00 +6°C° 0 mm 2 mps 769 mmHg 69%
    03:00 +6°C° 0 mm 2 mps 768 mmHg 68%
    04:00 +5°C° 0 mm 3 mps 768 mmHg 66%
    05:00 +5°C° 0 mm 3 mps 768 mmHg 64%
    06:00 +5°C° 0 mm 3 mps 768 mmHg 63%
    07:00 +5°C° 0 mm 3 mps 768 mmHg 61%
    08:00 +8°C° 0 mm 3 mps 768 mmHg 57%
    09:00 +9°C° 0 mm 3 mps 768 mmHg 54%
    10:00 +11°C° 0 mm 3 mps 768 mmHg 50%
    11:00 +12°C° 0 mm 4 mps 767 mmHg 51%
    12:00 +12°C° 0 mm 4 mps 767 mmHg 51%
    13:00 +13°C° 0 mm 4 mps 767 mmHg 52%
    14:00 +13°C° 0 mm 4 mps 767 mmHg 57%
    15:00 +12°C° 0 mm 4 mps 767 mmHg 61%
    16:00 +12°C° 0 mm 4 mps 767 mmHg 66%
    17:00 +11°C° 0 mm 4 mps 767 mmHg 69%
    18:00 +10°C° 0 mm 4 mps 767 mmHg 73%
    19:00 +8°C° 0 mm 4 mps 767 mmHg 76%
    20:00 +7°C° 0 mm 5 mps 767 mmHg 75%
    21:00 +7°C° 0 mm 5 mps 768 mmHg 74%
    22:00 +7°C° 0 mm 5 mps 768 mmHg 73%
    23:00 +7°C° 0 mm 5 mps 768 mmHg 71%

    27 January, Saturday

    Time Temperature Precipitation Wind Pressure Humidity
    00:00 +6°C° 0 mm 5 mps 768 mmHg 69%
    01:00 +6°C° 0 mm 5 mps 768 mmHg 68%
    02:00 +6°C° 0 mm 5 mps 768 mmHg 67%
    03:00 +6°C° 0 mm 5 mps 767 mmHg 66%
    04:00 +6°C° 0 mm 5 mps 767 mmHg 65%
    05:00 +6°C° 0 mm 5 mps 768 mmHg 65%
    06:00 +6°C° 0 mm 5 mps 768 mmHg 65%
    07:00 +6°C° 0 mm 5 mps 768 mmHg 65%
    08:00 +7°C° 0 mm 5 mps 768 mmHg 61%
    09:00 +9°C° 0 mm 5 mps 768 mmHg 58%
    10:00 +12°C° 0 mm 5 mps 769 mmHg 55%
    11:00 +13°C° 0 mm 5 mps 769 mmHg 54%
    12:00 +13°C° 0 mm 5 mps 768 mmHg 52%
    13:00 +14°C° 0 mm 4 mps 768 mmHg 51%
    14:00 +14°C° 0 mm 4 mps 768 mmHg 55%
    15:00 +13°C° 0 mm 4 mps 768 mmHg 58%
    16:00 +13°C° 0 mm 4 mps 768 mmHg 62%
    17:00 +12°C° 0 mm 3 mps 769 mmHg 65%
    18:00 +11°C° 0 mm 3 mps 769 mmHg 69%
    19:00 +10°C° 0 mm 3 mps 770 mmHg 72%
    20:00 +9°C° 0 mm 2 mps 770 mmHg 71%
    21:00 +9°C° 0 mm 2 mps 770 mmHg 70%
    22:00 +9°C° 0 mm 2 mps 771 mmHg 69%
    23:00 +9°C° 0 mm 2 mps 771 mmHg 68%

    28 January, Sunday

    Time Temperature Precipitation Wind Pressure Humidity
    00:00 +9°C° 0 mm 2 mps 771 mmHg 67%
    01:00 +8°C° 0 mm 2 mps 771 mmHg 66%
    02:00 +8°C° 0 mm 2 mps 771 mmHg 65%
    03:00 +8°C° 0 mm 2 mps 771 mmHg 65%
    04:00 +8°C° 0 mm 2 mps 771 mmHg 64%
    05:00 +8°C° 0 mm 2 mps 772 mmHg 63%
    06:00 +8°C° 0 mm 2 mps 772 mmHg 63%
    07:00 +8°C° 0 mm 2 mps 772 mmHg 62%
    08:00 +10°C° 0 mm 2 mps 773 mmHg 58%
    09:00 +12°C° 0 mm 1 mps 773 mmHg 53%
    10:00 +14°C° 0 mm 1 mps 773 mmHg 48%
    11:00 +15°C° 0 mm 1 mps 773 mmHg 47%
    12:00 +16°C° 0 mm 1 mps 773 mmHg 46%
    13:00 +17°C° 0 mm 2 mps 773 mmHg 45%
    14:00 +16°C° 0 mm 2 mps 773 mmHg 50%
    15:00 +16°C° 0 mm 2 mps 773 mmHg 56%
    16:00 +14°C° 0 mm 3 mps 773 mmHg 61%
    17:00 +13°C° 0 mm 3 mps 773 mmHg 65%
    18:00 +12°C° 0 mm 3 mps 773 mmHg 68%
    19:00 +10°C° 0 mm 3 mps 774 mmHg 72%
    20:00 +10°C° 0 mm 3 mps 774 mmHg 71%
    21:00 +10°C° 0 mm 3 mps 774 mmHg 70%
    22:00 +10°C° 0 mm 4 mps 774 mmHg 68%
    23:00 +8°C° 0 mm 4 mps 774 mmHg 67%

    29 January, Monday

    Time Temperature Precipitation Wind Pressure Humidity
    00:00 +8°C° 0 mm 4 mps 774 mmHg 66%
    01:00 +8°C° 0 mm 4 mps 774 mmHg 65%
    02:00 +8°C° 0 mm 4 mps 774 mmHg 64%
    03:00 +8°C° 0 mm 4 mps 773 mmHg 63%
    04:00 +7°C° 0 mm 4 mps 773 mmHg 62%
    05:00 +7°C° 0 mm 4 mps 773 mmHg 61%
    06:00 +7°C° 0 mm 4 mps 773 mmHg 60%
    07:00 +7°C° 0 mm 4 mps 773 mmHg 59%
    08:00 +10°C° 0 mm 4 mps 773 mmHg 54%
    09:00 +12°C° 0 mm 4 mps 773 mmHg 50%
    10:00 +14°C° 0 mm 4 mps 773 mmHg 46%
    11:00 +14°C° 0 mm 4 mps 773 mmHg 45%
    12:00 +15°C° 0 mm 4 mps 773 mmHg 44%
    13:00 +17°C° 0 mm 4 mps 772 mmHg 43%
    14:00 +15°C° 0 mm 4 mps 772 mmHg 48%
    15:00 +15°C° 0 mm 4 mps 772 mmHg 53%
    16:00 +14°C° 0 mm 5 mps 772 mmHg 58%
    17:00 +13°C° 0 mm 4 mps 772 mmHg 61%
    18:00 +12°C° 0 mm 4 mps 772 mmHg 63%
    19:00 +11°C° 0 mm 4 mps 772 mmHg 66%
    20:00 +10°C° 0 mm 4 mps 772 mmHg 64%
    21:00 +10°C° 0 mm 3 mps 772 mmHg 62%
    22:00 +10°C° 0 mm 3 mps 773 mmHg 61%
    23:00 +10°C° 0 mm 3 mps 773 mmHg 59%
    Show more